DW3348 Weather Reports


Display with metric or nautical units.
time (UTC)temp
F
wind
direction
speed
MPH
gust
MPH
rain 1hr
in
rain 24hr
in
rain mn
in
humidity
%
barometer
mb
20260506180827 53 133 1.0 5.0 0.00 0.00 0.00 91 1021.3
20260506175927 53 160 1.0 4.0 0.00 0.00 0.00 91 1021.3
20260506175027 53 123 1.0 6.0 0.00 0.00 0.00 91 1021.3
20260506173227 52 120 1.0 6.0 0.00 0.00 0.00 91 1021.4
20260506172327 52 146 0.0 1.0 0.00 0.00 0.00 91 1021.4
20260506170527 52 145 1.0 4.0 0.00 0.00 0.00 89 1021.2
20260506165627 52 134 0.0 4.0 0.00 0.00 0.00 90 1021.1
20260506164727 52 0 0.0 0.0 0.00 0.00 0.00 90 1021.0
20260506163827 52 0 0.0 0.0 0.00 0.00 0.00 89 1020.9
20260506162927 52 0 0.0 0.0 0.00 0.00 0.00 89 1020.9
20260506162027 52 0 0.0 0.0 0.00 0.00 0.00 89 1021.0
20260506160227 52 120 0.0 2.0 0.00 0.00 0.00 90 1021.0
20260506154427 52 0 0.0 0.0 0.00 0.00 0.00 92 1020.9
20260506153527 52 120 0.0 2.0 0.00 0.00 0.00 92 1020.9
20260506152627 51 0 0.0 0.0 0.00 0.00 0.00 92 1020.9
20260506150827 51 0 0.0 0.0 0.00 0.00 0.00 93 1020.6
20260506145927 51 0 0.0 0.0 0.00 0.00 0.00 93 1020.6
20260506145027 51 0 0.0 0.0 0.00 0.00 0.00 92 1020.5
20260506144127 51 0 0.0 0.0 0.00 0.00 0.00 93 1020.3
20260506143227 51 0 0.0 0.0 0.00 0.00 0.00 93 1020.1
20260506142327 51 0 0.0 0.0 0.00 0.00 0.00 93 1020.1
20260506141427 51 0 0.0 0.0 0.00 0.00 0.00 93 1020.0
20260506140527 51 0 0.0 0.0 0.00 0.00 0.00 93 1020.1
20260506134727 51 0 0.0 0.0 0.00 0.00 0.00 93 1019.9
20260506133827 51 0 0.0 0.0 0.00 0.00 0.00 93 1019.7
20260506132027 51 0 0.0 0.0 0.00 0.00 0.00 93 1019.7
20260506130227 51 0 0.0 0.0 0.00 0.00 0.00 93 1019.4
20260506125327 51 0 0.0 0.0 0.00 0.00 0.00 93 1019.4
20260506124427 51 0 0.0 0.0 0.00 0.00 0.00 93 1019.6
20260506123527 51 0 0.0 0.0 0.00 0.00 0.00 93 1019.4
20260506122627 51 0 0.0 0.0 0.00 0.00 0.00 93 1019.3
20260506121727 51 0 0.0 0.0 0.00 0.00 0.00 93 1019.3
20260506120827 51 0 0.0 0.0 0.00 0.00 0.00 93 1019.4
20260506115927 51 0 0.0 0.0 0.00 0.00 0.00 93 1019.4
20260506115027 51 0 0.0 0.0 0.00 0.00 0.00 93 1019.1
20260506114127 51 0 0.0 0.0 0.00 0.00 0.00 93 1019.0
20260506113227 51 0 0.0 0.0 0.00 0.00 0.00 93 1019.2
20260506112327 51 0 0.0 0.0 0.00 0.00 0.00 93 1019.2
20260506111427 51 0 0.0 0.0 0.00 0.00 0.00 93 1019.2
20260506110527 51 0 0.0 0.0 0.00 0.00 0.00 93 1019.1
20260506105627 51 0 0.0 0.0 0.00 0.00 0.00 93 1019.1
20260506104727 52 0 0.0 0.0 0.00 0.00 0.00 93 1019.1
20260506103827 52 0 0.0 0.0 0.00 0.00 0.00 92 1019.0
20260506102927 52 0 0.0 0.0 0.00 0.00 0.00 92 1018.9
20260506102027 52 0 0.0 0.0 0.00 0.00 0.00 92 1018.8
20260506101127 52 0 0.0 0.0 0.00 0.00 0.00 92 1018.7
20260506100227 52 0 0.0 0.0 0.00 0.00 0.00 92 1018.8
20260506095327 52 0 0.0 0.0 0.00 0.00 0.00 92 1018.7
20260506093527 52 0 0.0 0.0 0.00 0.00 0.00 92 1018.7
20260506092627 52 0 0.0 0.0 0.00 0.00 0.00 91 1018.8
20260506091727 52 0 0.0 0.0 0.00 0.00 0.00 91 1018.6
20260506085027 52 0 0.0 0.0 0.00 0.00 0.00 90 1018.5
20260506083227 52 0 0.0 0.0 0.00 0.00 0.00 90 1018.4
20260506082327 52 132 0.0 2.0 0.00 0.00 0.00 90 1018.4
20260506081427 52 111 0.0 4.0 0.00 0.00 0.00 90 1018.5
20260506080527 52 0 0.0 0.0 0.00 0.00 0.00 90 1018.4
20260506072927 52 0 0.0 0.0 0.00 0.00 0.00 89 1017.9
20260506072027 52 0 0.0 0.0 0.00 0.00 0.00 89 1017.8
20260506071127 52 87 0.0 1.0 0.00 0.00 0.00 89 1017.9
20260506070227 52 0 0.0 0.0 0.00 0.00 0.00 89 1017.9
20260506061727 53 0 0.0 0.0 0.00 0.00 0.00 88 1017.8
20260506060827 53 0 0.0 0.0 0.00 0.00 0.00 88 1017.8
20260506050527 54 0 0.0 0.0 0.00 0.00 0.00 87 1017.9
20260506044727 54 0 0.0 0.0 0.00 0.00 0.00 87 1017.8
20260506043827 54 0 0.0 0.0 0.00 0.00 0.00 86 1017.7
20260506042927 54 0 0.0 0.0 0.00 0.00 0.00 86 1017.6
20260506041127 54 0 0.0 0.0 0.00 0.00 0.00 86 1017.3
20260506040227 54 0 0.0 0.0 0.00 0.00 0.00 85 1017.1
20260506035327 54 0 0.0 0.0 0.00 0.00 0.00 85 1016.9
20260506034427 55 0 0.0 0.0 0.00 0.00 0.00 85 1016.8
20260506033527 55 0 0.0 0.0 0.00 0.00 0.00 84 1016.8
20260506032627 55 0 0.0 0.0 0.00 0.00 0.00 84 1016.8
20260506031727 55 0 0.0 0.0 0.00 0.00 0.00 84 1016.8
20260506030827 55 0 0.0 0.0 0.00 0.00 0.00 83 1016.8
20260506025927 55 0 0.0 0.0 0.00 0.00 0.00 83 1016.7
20260506025027 56 0 0.0 0.0 0.00 0.00 0.00 83 1016.7
20260506024127 56 127 0.0 2.0 0.00 0.00 0.00 82 1016.6
20260506023227 56 130 0.0 1.0 0.00 0.00 0.00 82 1016.6
20260506022327 56 115 0.0 5.0 0.00 0.00 0.00 81 1016.6
20260506021427 57 104 0.0 5.0 0.00 0.00 0.00 81 1016.6
20260506020527 57 54 0.0 1.0 0.00 0.00 0.00 81 1016.7
20260506015627 57 292 0.0 2.0 0.00 0.00 0.00 80 1016.6
20260506014727 57 111 1.0 6.0 0.00 0.00 0.00 79 1016.6
20260506013827 58 108 0.0 6.0 0.00 0.00 0.00 79 1016.6
20260506012027 59 137 1.0 6.0 0.00 0.00 0.00 77 1016.5
20260506010227 60 101 1.0 4.0 0.00 0.00 0.00 75 1016.5
20260506005327 60 105 1.0 5.0 0.00 0.00 0.00 75 1016.4
20260506003527 61 116 1.0 7.0 0.00 0.00 0.00 73 1016.4
20260506002627 61 128 1.0 6.0 0.00 0.00 0.00 74 1016.5
20260506001727 62 126 1.0 5.0 0.00 0.00 0.00 73 1016.5
20260506000827 62 127 1.0 8.0 0.00 0.00 0.00 73 1016.5
20260505235027 62 129 1.0 8.0 0.00 0.00 0.00 72 1016.6
20260505234127 63 146 0.0 7.0 0.00 0.00 0.00 74 1016.7
20260505233227 62 131 1.0 6.0 0.00 0.00 0.00 74 1016.7
20260505232327 62 142 0.0 5.0 0.00 0.00 0.00 73 1016.8
20260505231427 62 145 1.0 6.0 0.00 0.00 0.00 73 1016.7
20260505230527 62 154 1.0 6.0 0.00 0.00 0.00 73 1016.9
20260505223827 62 155 0.0 4.0 0.00 0.00 0.00 74 1016.9
20260505222927 62 150 1.0 6.0 0.00 0.00 0.00 76 1017.0
20260505222027 61 148 2.0 8.0 0.00 0.00 0.00 75 1017.1
20260505221127 61 149 1.0 6.0 0.00 0.00 0.00 75 1017.2
20260505220227 61 141 2.0 7.0 0.00 0.00 0.00 76 1017.1
20260505214427 61 158 2.0 7.0 0.00 0.00 0.00 76 1017.2
20260505213527 61 133 1.0 5.0 0.00 0.00 0.00 76 1017.2
20260505212627 61 153 2.0 8.0 0.00 0.00 0.00 75 1017.2
20260505205927 61 154 1.0 5.0 0.00 0.00 0.00 75 1017.2
20260505205027 61 140 1.0 7.0 0.00 0.00 0.00 75 1017.2
20260505203227 61 144 0.0 2.0 0.00 0.00 0.00 75 1017.3
20260505202327 61 152 1.0 5.0 0.00 0.00 0.00 75 1017.3
20260505201427 61 152 1.0 5.0 0.00 0.00 0.00 77 1017.3
20260505200527 60 162 1.0 6.0 0.00 0.00 0.00 79 1017.2
20260505195627 59 143 1.0 6.0 0.00 0.00 0.00 79 1017.2
20260505194727 59 110 2.0 7.0 0.00 0.00 0.00 79 1017.2
20260505193827 59 117 0.0 2.0 0.00 0.00 0.00 80 1017.2
20260505192927 59 159 1.0 5.0 0.00 0.00 0.00 79 1017.2
20260505192027 59 134 1.0 5.0 0.00 0.00 0.00 80 1017.2
20260505191127 59 150 1.0 8.0 0.00 0.00 0.00 79 1017.1
20260505190227 59 92 1.0 3.0 0.00 0.00 0.00 78 1017.1
20260505185327 59 114 0.0 1.0 0.00 0.00 0.00 82 1017.1
20260505184427 58 113 0.0 2.0 0.00 0.00 0.00 81 1017.1
20260505183527 58 0 0.0 0.0 0.00 0.00 0.00 82 1017.1
20260505182627 58 90 0.0 4.0 0.00 0.00 0.00 82 1017.0